| time (UTC) | temp F | wind direction | speed MPH | gust MPH | rain 1hr in | rain 24hr in | rain mn in | humidity % | barometer mb |
| 20260904220005 | 61 | 277 | 7.0 | 20.0 | 0.00 | 0.07 | 0.00 | 72 | 1019.5 |
| 20260904215506 | 61 | 245 | 13.0 | 18.0 | 0.00 | 0.07 | 0.00 | 75 | 1019.6 |
| 20260904214006 | 60 | 304 | 7.0 | 13.0 | 0.00 | 0.07 | 0.00 | 75 | 1019.4 |
| 20260904213504 | 60 | 276 | 7.0 | 15.0 | 0.00 | 0.07 | 0.00 | 74 | 1019.6 |
| 20260904213005 | 59 | 251 | 10.0 | 14.0 | 0.00 | 0.07 | 0.00 | 71 | 1019.7 |
| 20260904210505 | 59 | 253 | 10.0 | 18.0 | 0.00 | 0.07 | 0.00 | 75 | 1019.7 |
| 20260904204507 | 58 | 269 | 7.0 | 14.0 | 0.00 | 0.07 | 0.00 | 78 | 1019.7 |
| 20260904203505 | 57 | 241 | 8.0 | 18.0 | 0.00 | 0.07 | 0.00 | 77 | 1019.4 |
| 20260904202506 | 57 | 252 | 10.0 | 15.0 | 0.00 | 0.07 | 0.00 | 78 | 1019.3 |
| 20260904201506 | 56 | 254 | 7.0 | 14.0 | 0.00 | 0.07 | 0.00 | 80 | 1019.4 |
| 20260904201004 | 56 | 256 | 7.0 | 18.0 | 0.00 | 0.07 | 0.00 | 79 | 1019.3 |
| 20260904200505 | 55 | 254 | 9.0 | 16.0 | 0.00 | 0.07 | 0.00 | 80 | 1019.2 |
| 20260904200006 | 55 | 250 | 10.0 | 17.0 | 0.00 | 0.07 | 0.00 | 80 | 1019.0 |
| 20260904195505 | 54 | 247 | 12.0 | 18.0 | 0.00 | 0.07 | 0.00 | 80 | 1018.9 |
| 20260904195005 | 54 | 246 | 12.0 | 17.0 | 0.00 | 0.07 | 0.00 | 81 | 1018.8 |
| 20260904194505 | 54 | 248 | 10.0 | 15.0 | 0.00 | 0.07 | 0.00 | 81 | 1018.8 |
| 20260904193504 | 54 | 240 | 12.0 | 18.0 | 0.00 | 0.07 | 0.00 | 84 | 1018.6 |
| 20260904192506 | 54 | 245 | 13.0 | 17.0 | 0.00 | 0.07 | 0.00 | 85 | 1018.3 |
| 20260904191504 | 53 | 256 | 8.0 | 13.0 | 0.00 | 0.07 | 0.00 | 83 | 1018.4 |
| 20260904191005 | 53 | 248 | 9.0 | 13.0 | 0.00 | 0.07 | 0.00 | 83 | 1018.2 |
| 20260904184007 | 53 | 252 | 7.0 | 13.0 | 0.00 | 0.07 | 0.00 | 79 | 1018.0 |
| 20260904182504 | 53 | 243 | 7.0 | 13.0 | 0.00 | 0.07 | 0.00 | 80 | 1017.8 |
| 20260904181504 | 53 | 245 | 10.0 | 13.0 | 0.00 | 0.07 | 0.00 | 81 | 1017.8 |
| 20260904180007 | 53 | 247 | 7.0 | 12.0 | 0.00 | 0.07 | 0.00 | 80 | 1017.7 |
| 20260904174504 | 53 | 238 | 9.0 | 14.0 | 0.00 | 0.07 | 0.00 | 79 | 1017.6 |
| 20260904171504 | 54 | 241 | 9.0 | 17.0 | 0.00 | 0.07 | 0.00 | 81 | 1017.4 |
| 20260904171005 | 54 | 253 | 7.0 | 14.0 | 0.00 | 0.07 | 0.00 | 81 | 1017.4 |
| 20260904163008 | 54 | 241 | 13.0 | 24.0 | 0.00 | 0.07 | 0.00 | 86 | 1016.9 |
| 20260904162506 | 54 | 242 | 10.0 | 17.0 | 0.00 | 0.07 | 0.00 | 86 | 1017.0 |
| 20260904162006 | 54 | 239 | 10.0 | 17.0 | 0.00 | 0.07 | 0.00 | 86 | 1016.7 |
| 20260904161507 | 54 | 246 | 7.0 | 13.0 | 0.00 | 0.07 | 0.00 | 86 | 1016.8 |
| 20260904160507 | 54 | 247 | 10.0 | 17.0 | 0.00 | 0.07 | 0.00 | 85 | 1016.5 |
| 20260904155007 | 54 | 243 | 11.0 | 17.0 | 0.00 | 0.07 | 0.00 | 85 | 1016.4 |
| 20260904153007 | 54 | 232 | 9.0 | 15.0 | 0.00 | 0.07 | 0.00 | 84 | 1016.3 |
| 20260904151506 | 54 | 243 | 12.0 | 18.0 | 0.00 | 0.07 | 0.00 | 86 | 1016.2 |
| 20260904151006 | 54 | 226 | 10.0 | 15.0 | 0.00 | 0.07 | 0.00 | 87 | 1016.2 |
| 20260904144007 | 55 | 237 | 13.0 | 20.0 | 0.00 | 0.07 | 0.00 | 90 | 1016.3 |
| 20260904142506 | 55 | 249 | 14.0 | 23.0 | 0.00 | 0.07 | 0.00 | 88 | 1016.3 |
| 20260904142006 | 55 | 250 | 13.0 | 22.0 | 0.00 | 0.07 | 0.00 | 87 | 1016.2 |
| 20260904134506 | 55 | 251 | 11.0 | 22.0 | 0.00 | 0.07 | 0.00 | 88 | 1016.2 |
| 20260904134008 | 55 | 253 | 12.0 | 24.0 | 0.00 | 0.07 | 0.00 | 88 | 1016.1 |
| 20260904133506 | 55 | 241 | 16.0 | 24.0 | 0.00 | 0.07 | 0.00 | 88 | 1016.2 |
| 20260904133006 | 55 | 249 | 12.0 | 20.0 | 0.00 | 0.07 | 0.00 | 87 | 1016.1 |
| 20260904132507 | 55 | 249 | 13.0 | 24.0 | 0.00 | 0.07 | 0.00 | 87 | 1015.9 |
| 20260904132007 | 55 | 246 | 15.0 | 23.0 | 0.00 | 0.07 | 0.00 | 87 | 1015.9 |
| 20260904131505 | 55 | 253 | 11.0 | 21.0 | 0.00 | 0.07 | 0.00 | 88 | 1015.8 |
| 20260904125507 | 55 | 247 | 13.0 | 21.0 | 0.00 | 0.07 | 0.00 | 88 | 1015.6 |
| 20260904124506 | 55 | 260 | 12.0 | 22.0 | 0.00 | 0.07 | 0.00 | 87 | 1015.5 |
| 20260904122006 | 54 | 251 | 14.0 | 22.0 | 0.00 | 0.07 | 0.00 | 86 | 1015.3 |
| 20260904121506 | 54 | 251 | 17.0 | 26.0 | 0.00 | 0.07 | 0.00 | 87 | 1015.1 |
| 20260904121006 | 54 | 249 | 13.0 | 25.0 | 0.00 | 0.07 | 0.00 | 87 | 1015.2 |
| 20260904120006 | 54 | 251 | 14.0 | 21.0 | 0.00 | 0.07 | 0.00 | 87 | 1015.4 |
| 20260904115008 | 55 | 249 | 13.0 | 23.0 | 0.00 | 0.07 | 0.07 | 86 | 1015.4 |
| 20260904114506 | 55 | 249 | 13.0 | 22.0 | 0.00 | 0.07 | 0.07 | 86 | 1015.5 |
| 20260904113008 | 55 | 248 | 16.0 | 23.0 | 0.00 | 0.07 | 0.07 | 87 | 1015.4 |
| 20260904112506 | 55 | 249 | 15.0 | 26.0 | 0.00 | 0.07 | 0.07 | 87 | 1015.3 |
| 20260904111507 | 55 | 250 | 15.0 | 25.0 | 0.00 | 0.07 | 0.07 | 87 | 1015.4 |
| 20260904105006 | 55 | 250 | 15.0 | 25.0 | 0.00 | 0.07 | 0.07 | 87 | 1015.3 |
| 20260904104506 | 55 | 252 | 13.0 | 21.0 | 0.00 | 0.07 | 0.07 | 87 | 1015.3 |
| 20260904102507 | 55 | 253 | 11.0 | 23.0 | 0.00 | 0.07 | 0.07 | 87 | 1015.3 |
| 20260904101007 | 55 | 243 | 17.0 | 26.0 | 0.00 | 0.07 | 0.07 | 86 | 1015.3 |
| 20260904100506 | 55 | 246 | 13.0 | 23.0 | 0.00 | 0.07 | 0.07 | 85 | 1015.1 |
| 20260904100006 | 55 | 246 | 19.0 | 29.0 | 0.00 | 0.07 | 0.07 | 85 | 1015.1 |
| 20260904095507 | 55 | 242 | 18.0 | 28.0 | 0.00 | 0.07 | 0.07 | 86 | 1015.3 |
| 20260904095005 | 55 | 243 | 13.0 | 22.0 | 0.00 | 0.07 | 0.07 | 86 | 1015.2 |
| 20260904094008 | 55 | 249 | 16.0 | 29.0 | 0.00 | 0.07 | 0.07 | 86 | 1015.2 |
| 20260904093506 | 55 | 252 | 16.0 | 26.0 | 0.00 | 0.07 | 0.07 | 87 | 1014.9 |
| 20260904092006 | 55 | 251 | 15.0 | 24.0 | 0.00 | 0.07 | 0.07 | 86 | 1014.5 |
| 20260904090005 | 54 | 247 | 16.0 | 31.0 | 0.00 | 0.07 | 0.07 | 86 | 1014.2 |
| 20260904085508 | 54 | 245 | 19.0 | 25.0 | 0.00 | 0.07 | 0.07 | 87 | 1014.1 |
| 20260904084506 | 55 | 250 | 14.0 | 21.0 | 0.00 | 0.07 | 0.07 | 88 | 1014.1 |
| 20260904082006 | 55 | 244 | 20.0 | 32.0 | 0.00 | 0.07 | 0.07 | 87 | 1014.0 |
| 20260904081506 | 55 | 253 | 16.0 | 30.0 | 0.00 | 0.07 | 0.07 | 88 | 1013.8 |
| 20260904081007 | 55 | 252 | 16.0 | 23.0 | 0.00 | 0.07 | 0.07 | 88 | 1013.9 |
| 20260904073006 | 56 | 251 | 14.0 | 25.0 | 0.00 | 0.07 | 0.07 | 95 | 1013.3 |
| 20260904072507 | 56 | 248 | 18.0 | 25.0 | 0.00 | 0.07 | 0.07 | 96 | 1013.3 |
| 20260904071506 | 56 | 258 | 16.0 | 24.0 | 0.00 | 0.07 | 0.07 | 96 | 1013.1 |
| 20260904070506 | 56 | 254 | 14.0 | 22.0 | 0.00 | 0.07 | 0.07 | 96 | 1013.1 |
| 20260904065006 | 56 | 251 | 14.0 | 21.0 | 0.00 | 0.07 | 0.07 | 97 | 1012.7 |
| 20260904064505 | 56 | 260 | 12.0 | 21.0 | 0.00 | 0.07 | 0.07 | 97 | 1012.5 |
| 20260904064005 | 56 | 257 | 13.0 | 23.0 | 0.00 | 0.07 | 0.07 | 97 | 1012.6 |
| 20260904062007 | 57 | 259 | 13.0 | 22.0 | 0.00 | 0.07 | 0.07 | 98 | 1012.2 |
| 20260904061505 | 57 | 259 | 12.0 | 21.0 | 0.00 | 0.07 | 0.07 | 98 | 1012.2 |
| 20260904061006 | 57 | 252 | 15.0 | 24.0 | 0.00 | 0.07 | 0.07 | 98 | 1012.1 |
| 20260904060508 | 57 | 249 | 13.0 | 23.0 | 0.00 | 0.07 | 0.07 | 98 | 1012.3 |
| 20260904060006 | 58 | 258 | 14.0 | 22.0 | 0.00 | 0.07 | 0.07 | 98 | 1012.2 |
| 20260904055007 | 58 | 263 | 14.0 | 24.0 | 0.00 | 0.07 | 0.07 | 98 | 1011.9 |
| 20260904054006 | 58 | 253 | 14.0 | 24.0 | 0.02 | 0.07 | 0.07 | 99 | 1011.9 |
| 20260904053507 | 58 | 253 | 16.0 | 22.0 | 0.02 | 0.07 | 0.07 | 99 | 1011.7 |
| 20260904053006 | 58 | 259 | 12.0 | 20.0 | 0.02 | 0.07 | 0.07 | 99 | 1011.5 |
| 20260904051507 | 58 | 262 | 13.0 | 25.0 | 0.02 | 0.08 | 0.07 | 99 | 1011.5 |
| 20260904050007 | 59 | 273 | 12.0 | 23.0 | 0.02 | 0.10 | 0.07 | 99 | 1011.3 |
| 20260904045506 | 59 | 281 | 10.0 | 30.0 | 0.02 | 0.09 | 0.07 | 99 | 1011.2 |
| 20260904045006 | 59 | 305 | 16.0 | 30.0 | 0.02 | 0.09 | 0.07 | 99 | 1011.0 |
| 20260904044005 | 59 | 314 | 25.0 | 38.0 | 0.01 | 0.08 | 0.06 | 99 | 1010.5 |
| 20260904042505 | 59 | 312 | 33.0 | 44.0 | 0.01 | 0.08 | 0.06 | 99 | 1010.2 |
| 20260904042007 | 59 | 319 | 30.0 | 44.0 | 0.01 | 0.08 | 0.06 | 98 | 1010.0 |
| 20260904041506 | 59 | 317 | 34.0 | 45.0 | 0.02 | 0.08 | 0.06 | 98 | 1010.1 |
| 20260904041005 | 59 | 314 | 30.0 | 45.0 | 0.02 | 0.08 | 0.06 | 98 | 1009.9 |
| 20260904040506 | 59 | 322 | 30.0 | 41.0 | 0.02 | 0.08 | 0.06 | 98 | 1010.3 |
| 20260904040006 | 59 | 316 | 29.0 | 38.0 | 0.02 | 0.08 | 0.06 | 98 | 1010.3 |
| 20260904033505 | 59 | 316 | 31.0 | 53.0 | 0.01 | 0.07 | 0.04 | 97 | 1010.2 |
| 20260904032506 | 59 | 321 | 32.0 | 47.0 | 0.01 | 0.07 | 0.04 | 97 | 1010.2 |
| 20260904031007 | 59 | 313 | 33.0 | 48.0 | 0.01 | 0.07 | 0.04 | 96 | 1010.3 |
| 20260904025005 | 59 | 317 | 35.0 | 46.0 | 0.01 | 0.06 | 0.04 | 96 | 1010.2 |
| 20260904024506 | 59 | 317 | 37.0 | 49.0 | 0.01 | 0.06 | 0.03 | 95 | 1010.2 |
| 20260904022007 | 59 | 311 | 33.0 | 53.0 | 0.03 | 0.06 | 0.03 | 96 | 1010.2 |
| 20260904021005 | 59 | 319 | 39.0 | 53.0 | 0.03 | 0.06 | 0.03 | 96 | 1010.2 |
| 20260904020507 | 59 | 311 | 35.0 | 52.0 | 0.03 | 0.06 | 0.03 | 96 | 1010.5 |
| 20260904020005 | 59 | 306 | 36.0 | 52.0 | 0.03 | 0.06 | 0.03 | 95 | 1010.1 |
| 20260904015505 | 59 | 309 | 34.0 | 52.0 | 0.03 | 0.06 | 0.03 | 95 | 1010.2 |
| 20260904014505 | 59 | 318 | 36.0 | 53.0 | 0.02 | 0.05 | 0.02 | 94 | 1010.1 |
| 20260904013507 | 59 | 322 | 41.0 | 58.0 | 0.02 | 0.05 | 0.02 | 93 | 1009.6 |
| 20260904012007 | 60 | 308 | 32.0 | 54.0 | 0.00 | 0.03 | 0.00 | 90 | 1010.9 |
| 20260904005007 | 61 | 309 | 35.0 | 49.0 | 0.00 | 0.03 | 0.00 | 88 | 1011.8 |
| 20260904004507 | 61 | 314 | 34.0 | 52.0 | 0.00 | 0.03 | 0.00 | 88 | 1012.0 |
| 20260904004005 | 61 | 311 | 40.0 | 52.0 | 0.00 | 0.03 | 0.00 | 87 | 1012.0 |
| 20260904003007 | 62 | 314 | 33.0 | 52.0 | 0.00 | 0.03 | 0.00 | 88 | 1012.2 |
| 20260904002505 | 62 | 317 | 41.0 | 52.0 | 0.00 | 0.03 | 0.00 | 87 | 1012.1 |
| 20260904002005 | 62 | 300 | 25.0 | 45.0 | 0.00 | 0.03 | 0.00 | 87 | 1012.3 |
| 20260903235504 | 62 | 315 | 28.0 | 43.0 | 0.00 | 0.03 | 0.00 | 89 | 1012.8 |
| 20260903235007 | 61 | 320 | 28.0 | 37.0 | 0.00 | 0.03 | 0.00 | 91 | 1013.0 |
| 20260903234505 | 61 | 323 | 30.0 | 46.0 | 0.00 | 0.03 | 0.00 | 91 | 1013.0 |
| 20260903233505 | 60 | 319 | 26.0 | 39.0 | 0.00 | 0.03 | 0.00 | 93 | 1013.1 |
| 20260903233007 | 59 | 322 | 32.0 | 48.0 | 0.00 | 0.03 | 0.00 | 93 | 1013.1 |
| 20260903232505 | 60 | 324 | 37.0 | 52.0 | 0.00 | 0.03 | 0.00 | 92 | 1013.2 |
| 20260903231505 | 60 | 317 | 27.0 | 39.0 | 0.00 | 0.03 | 0.00 | 92 | 1013.2 |
| 20260903231007 | 60 | 314 | 28.0 | 38.0 | 0.00 | 0.03 | 0.00 | 91 | 1013.2 |
| 20260903225005 | 60 | 318 | 27.0 | 47.0 | 0.00 | 0.03 | 0.00 | 89 | 1013.5 |
| 20260903224505 | 60 | 316 | 25.0 | 38.0 | 0.00 | 0.03 | 0.00 | 89 | 1013.3 |
| 20260903224006 | 60 | 314 | 26.0 | 40.0 | 0.00 | 0.03 | 0.00 | 89 | 1013.5 |
| 20260903223504 | 60 | 312 | 30.0 | 43.0 | 0.00 | 0.03 | 0.00 | 89 | 1013.5 |
| 20260903222507 | 60 | 316 | 30.0 | 39.0 | 0.00 | 0.03 | 0.00 | 88 | 1013.3 |
| 20260903222005 | 60 | 323 | 29.0 | 44.0 | 0.00 | 0.03 | 0.00 | 88 | 1013.3 |
| 20260903220505 | 60 | 326 | 25.0 | 40.0 | 0.00 | 0.03 | 0.00 | 89 | 1013.7 |